Tracking 18840 objects as of 19-November-2017
HD Live streaming from Space Station
objects crossing your sky now

RADUGA 29

Track RADUGA 29 now!
RADUGA 29 is classified as:


NORAD ID: 22557
Int'l Code: 1993-013A
Perigee: 35,812.8 km
Apogee: 35,822.3 km
Inclination: 15.0 °
Period: 1,437.3 minutes
Semi major axis: 42188 km
RCS: 11.2334 m2 (large)
Launch date: March 25, 1993
Source: Commonwealth of Independent States (former USSR) (CIS)
Launch site: TYURATAM MISSILE AND SPACE COMPLEX (TTMTR)
aabbcc
Your satellite tracking list
Your tracking list is empty




NASA's NSSDC Master Catalog

Two Line Element Set (TLE):
1 22557U 93013A   17322.54576406 -.00000355 +00000-0 +00000-0 0  9993
2 22557 014.9544 011.9266 0001126 269.3485 081.8353 01.00187052090261
Source of the keplerian elements: AFSPC